GW0203 Weather Reports


time (UTC)temp
F
wind
direction
speed
knots
gust
knots
rain 1hr
in
rain 24hr
in
rain mn
in
humidity
%
barometer
mb
20260906231519 63 270 0.0 1.7 0.00 0.08 0.08 89 1014.0
20260906230019 64 154 0.0 1.7 0.00 0.08 0.08 86 1014.1
20260906224516 65 198 0.9 2.6 0.00 0.08 0.08 84 1014.0
20260906223013 65 195 0.0 2.6 0.00 0.08 0.08 84 1013.9
20260906221510 68 249 0.0 3.5 0.00 0.08 0.08 81 1013.6
20260906220005 70 8 0.0 0.9 0.00 0.08 0.08 78 1013.7
20260906214502 70 117 0.0 1.7 0.00 0.08 0.08 76 1013.7
20260906213002 71 95 1.7 2.6 0.00 0.08 0.08 74 1013.6
20260906211457 67 66 0.0 1.7 0.00 0.08 0.08 82 1013.4
20260906205953 67 110 1.7 1.7 0.00 0.08 0.08 80 1013.6
20260906204451 68 90 0.0 1.7 0.00 0.08 0.08 81 1013.6
20260906202949 68 53 0.0 3.5 0.00 0.08 0.08 81 1013.4
20260906201443 70 94 0.0 2.6 0.00 0.08 0.08 78 1013.4
20260906195940 69 90 0.0 2.6 0.00 0.08 0.08 90 1013.4
20260906194439 65 49 1.7 7.0 0.05 0.08 0.08 94 1013.6
20260906192937 67 84 0.0 5.2 0.00 0.04 0.04 81 1013.7
20260906191437 67 97 0.0 4.3 0.00 0.04 0.04 81 1013.4
20260906185936 68 39 2.6 8.7 0.00 0.04 0.04 80 1013.3
20260906184435 70 286 4.3 6.1 0.00 0.04 0.04 70 1013.2
20260906182933 70 358 3.5 4.3 0.00 0.04 0.04 70 1013.3
20260906181432 70 81 0.0 5.2 0.00 0.04 0.04 73 1013.5
20260906175932 70 0 0.0 1.7 0.00 0.04 0.04 73 1013.7
20260906174431 71 186 0.0 2.6 0.00 0.04 0.04 70 1013.5
20260906172926 74 8 0.0 2.6 0.00 0.04 0.04 69 1013.9
20260906171425 67 120 0.0 2.6 0.00 0.04 0.04 83 1013.9
20260906165919 68 56 2.6 6.1 0.00 0.04 0.04 78 1013.7
20260906164418 67 105 3.5 4.3 0.00 0.04 0.04 84 1014.1
20260906162914 66 82 0.0 3.5 0.00 0.04 0.04 87 1013.9
20260906161413 67 41 1.7 7.0 0.00 0.04 0.04 80 1014.1
20260906155910 69 105 0.0 5.2 0.00 0.04 0.04 77 1013.9
20260906154407 68 94 1.7 4.3 0.00 0.04 0.04 78 1014.0
20260906152906 71 0 4.3 5.2 0.00 0.04 0.04 71 1014.2
20260906151401 68 320 7.0 7.0 0.00 0.04 0.04 78 1014.1
20260906145857 68 62 3.5 7.8 0.00 0.04 0.04 82 1014.2
20260906144357 66 95 1.7 2.6 0.00 0.04 0.04 85 1014.5
20260906142855 64 348 5.2 7.8 0.00 0.04 0.04 88 1014.5
20260906141355 64 32 2.6 6.1 0.00 0.04 0.04 90 1014.2
20260906135854 63 7 0.0 3.5 0.00 0.04 0.04 95 1014.6
20260906134350 62 24 1.7 7.8 0.02 0.04 0.04 95 1014.3
20260906132849 62 6 0.0 4.3 0.00 0.04 0.04 94 1014.3
20260906131346 61 12 3.5 7.8 0.00 0.04 0.04 95 1014.5
20260906125846 61 39 1.7 4.3 0.00 0.04 0.04 97 1014.1
20260906124347 61 356 1.7 2.6 0.00 0.04 0.04 99 1014.1
20260906122846 60 90 0.0 4.3 0.00 0.04 0.04 99 1014.0
20260906121345 60 324 2.6 3.5 0.00 0.04 0.04 99 1013.9
20260906115844 59 48 1.7 2.6 0.02 0.04 0.04 99 1013.8
20260906114340 59 349 4.3 4.3 0.00 0.04 0.04 99 1013.7
20260906112835 59 6 2.6 3.5 0.00 0.04 0.04 99 1013.5
20260906111331 59 86 1.7 3.5 0.02 0.04 0.04 99 1013.3
20260906105827 59 29 0.0 4.3 0.02 0.03 0.03 99 1013.2
20260906104323 59 114 0.0 4.3 0.09 0.02 0.02 99 1013.1
20260906102822 60 41 4.3 5.2 0.00 0.00 0.00 99 1012.7
20260906101323 60 0 0.0 6.1 0.00 0.00 0.00 99 1012.5
20260906095819 60 90 2.6 2.6 0.00 0.00 0.00 99 1012.5
20260906094314 60 90 0.0 6.1 0.00 0.00 0.00 99 1012.2
20260906092813 60 354 0.9 3.5 0.00 0.00 0.00 99 1012.0
20260906091311 61 16 0.0 2.6 0.00 0.00 0.00 99 1011.8
20260906085806 61 24 1.7 2.6 0.00 0.00 0.00 99 1011.8
20260906084306 61 16 1.7 3.5 0.00 0.00 0.00 99 1011.7
20260906082802 60 5 0.9 3.5 0.00 0.00 0.00 99 1011.4
20260906081301 61 37 1.7 3.5 0.00 0.00 0.00 99 1011.4
20260906075758 61 345 0.9 2.6 0.00 0.00 0.00 99 1011.2
20260906074253 61 81 1.7 3.5 0.00 0.00 0.00 98 1011.3
20260906072749 61 331 0.0 3.5 0.00 0.00 0.00 98 1011.7
20260906071246 61 12 0.0 3.5 0.00 0.00 0.00 98 1011.2
20260906065743 61 17 1.7 4.3 0.00 0.00 0.00 97 1011.5
20260906064242 61 36 2.6 4.3 0.00 0.00 0.00 96 1011.5
20260906062739 61 7 1.7 6.1 0.00 0.00 0.00 95 1011.4
20260906061237 61 55 2.6 3.5 0.00 0.00 0.00 95 1011.2
20260906055736 62 14 1.7 2.6 0.00 0.00 0.00 94 1011.4
20260906054233 62 18 2.6 4.3 0.00 0.00 0.00 95 1011.6
20260906052732 62 349 1.7 3.5 0.00 0.00 0.00 95 1011.7
20260906051230 62 10 1.7 3.5 0.00 0.00 0.00 95 1012.0
20260906045725 62 334 1.7 3.5 0.00 0.00 0.00 95 1011.9
20260906044223 62 40 0.0 1.7 0.00 0.00 0.00 95 1011.7
20260906042720 61 14 0.0 2.6 0.00 0.00 0.00 95 1011.7
20260906041216 61 8 0.0 2.6 0.00 0.00 0.00 95 1011.7
20260906035714 62 354 0.9 2.6 0.00 0.00 0.00 94 1011.3
20260906034210 62 342 0.0 2.6 0.00 0.00 0.00 94 1011.7
20260906032709 61 353 0.0 1.7 0.00 0.00 0.00 93 1011.3
20260906031205 62 48 1.7 2.6 0.00 0.00 0.00 91 1011.3
20260906025705 63 96 0.9 1.7 0.00 0.00 0.00 91 1011.5
20260906024204 63 90 1.7 1.7 0.00 0.00 0.00 90 1011.3
20260906022701 63 106 0.9 1.7 0.00 0.00 0.00 89 1011.5
20260906021157 63 353 0.0 2.6 0.00 0.00 0.00 89 1011.6
20260906015653 63 105 1.7 1.7 0.00 0.00 0.00 88 1011.6
20260906014148 63 45 0.0 1.7 0.00 0.00 0.00 88 1011.6
20260906012645 63 35 0.0 1.7 0.00 0.00 0.00 88 1011.6
20260906011142 64 18 1.7 2.6 0.00 0.00 0.00 88 1011.3
20260906005638 64 35 0.9 2.6 0.00 0.00 0.00 88 1011.5
20260906004138 64 84 0.0 1.7 0.00 0.00 0.00 88 1011.1
20260906002635 63 103 0.0 1.7 0.00 0.00 0.00 88 1011.1
20260906001131 63 20 0.0 2.6 0.00 0.00 0.00 88 1011.3
20260905235627 64 90 0.0 1.7 0.00 0.00 0.00 87 1010.8
20260905234125 64 108 0.0 1.7 0.00 0.00 0.00 86 1010.8
20260905232621 65 90 0.0 4.3 0.00 0.00 0.00 87 1010.5